DW8700 Weather Reports


time (UTC)temp
C
wind
direction
speed
KPH
gust
KPH
rain 1hr
cm
rain 24hr
cm
rain mn
cm
humidity
%
barometer
mb
20260507052540 15 311 0.0 0.0 0.00 0.00 0.00 86 1018.3
20260507052040 15 311 0.0 0.0 0.00 0.00 0.00 85 1018.3
20260507051540 15 310 0.0 0.0 0.00 0.00 0.00 85 1018.2
20260507051040 15 310 0.0 0.0 0.00 0.00 0.00 85 1018.2
20260507050539 15 308 0.0 0.0 0.00 0.00 0.00 84 1018.2
20260507050039 15 308 0.0 0.0 0.00 0.00 0.00 84 1018.2
20260507045538 15 308 0.0 0.0 0.00 0.00 0.00 84 1018.1
20260507045039 15 308 0.0 0.0 0.00 0.00 0.00 83 1018.1
20260507044553 16 307 0.0 0.0 0.00 0.00 0.00 83 1017.9
20260507044038 16 307 0.0 0.0 0.00 0.00 0.00 83 1017.8
20260507043538 16 308 0.0 0.0 0.00 0.00 0.00 82 1017.8
20260507043038 16 307 0.0 0.0 0.00 0.00 0.00 82 1017.7
20260507042539 16 300 0.0 0.0 0.00 0.00 0.00 82 1017.7
20260507042038 16 299 0.0 0.0 0.00 0.00 0.00 81 1017.6
20260507041545 16 297 0.0 0.0 0.00 0.00 0.00 80 1017.5
20260507041038 16 344 0.0 0.0 0.00 0.00 0.00 80 1017.4
20260507040538 16 344 0.0 0.0 0.00 0.00 0.00 80 1017.4
20260507040042 16 58 0.0 0.0 0.00 0.00 0.00 79 1017.4
20260507035537 17 59 0.0 0.0 0.00 0.00 0.00 78 1017.4
20260507035037 17 59 0.0 0.0 0.00 0.00 0.00 78 1017.3
20260507034542 17 58 0.0 0.0 0.00 0.00 0.00 77 1017.3
20260507034038 17 15 0.0 0.0 0.00 0.00 0.00 76 1017.3
20260507033537 17 15 0.0 0.0 0.00 0.00 0.00 75 1017.3
20260507033048 18 15 0.0 0.0 0.00 0.00 0.00 74 1017.3
20260507032536 18 15 0.0 0.0 0.00 0.00 0.00 73 1017.1
20260507032041 18 15 0.0 0.0 0.00 0.00 0.00 71 1017.1
20260507031552 18 15 0.0 0.0 0.00 0.00 0.00 70 1017.0
20260507031036 19 15 0.0 0.0 0.00 0.00 0.00 70 1017.0
20260507030535 19 15 0.0 0.0 0.00 0.00 0.00 69 1016.9
20260507030047 20 15 0.0 0.0 0.00 0.00 0.00 69 1016.8
20260507025534 20 15 0.0 0.0 0.00 0.00 0.00 68 1016.7
20260507025036 20 15 0.0 0.0 0.00 0.00 0.00 66 1016.7
20260507024548 20 15 0.0 0.0 0.00 0.00 0.00 65 1016.7
20260507024035 20 72 0.0 0.0 0.00 0.00 0.00 64 1016.7
20260507023534 20 72 0.0 0.0 0.00 0.00 0.00 65 1016.6
20260507023035 21 72 0.0 0.0 0.00 0.00 0.00 64 1016.5
20260507022535 21 71 0.0 0.0 0.00 0.00 0.00 62 1016.5
20260507022034 21 83 0.0 0.0 0.00 0.00 0.00 61 1016.5
20260507021537 21 82 0.0 0.0 0.00 0.00 0.00 60 1016.6
20260507021034 22 101 0.0 0.0 0.00 0.00 0.00 59 1016.5
20260507020535 22 101 0.0 0.0 0.00 0.00 0.00 59 1016.5
20260507020040 22 221 0.0 0.0 0.00 0.00 0.00 59 1016.4
20260507015532 22 178 0.0 0.0 0.00 0.00 0.00 58 1016.5
20260507015033 22 200 0.0 0.0 0.00 0.00 0.00 60 1016.4
20260507014541 22 195 0.0 0.0 0.00 0.00 0.00 58 1016.4
20260507014032 22 176 0.0 0.0 0.00 0.00 0.00 58 1016.5
20260507013534 23 109 0.0 0.0 0.00 0.00 0.00 57 1016.4
20260507013039 23 98 0.0 0.0 0.00 0.00 0.00 57 1016.5
20260507012534 23 129 0.0 0.0 0.00 0.00 0.00 55 1016.5
20260507012032 23 94 0.0 0.0 0.00 0.00 0.00 54 1016.6
20260507011536 24 84 0.0 0.0 0.00 0.00 0.00 55 1016.6
20260507011032 24 213 0.0 0.0 0.00 0.00 0.00 55 1016.5
20260507010531 24 274 0.0 0.0 0.00 0.00 0.00 55 1016.4
20260507010039 24 132 0.0 0.0 0.00 0.00 0.00 54 1016.4
20260507005532 24 233 0.0 0.0 0.00 0.00 0.00 56 1016.5
20260507005034 24 159 0.0 0.0 0.00 0.00 0.00 56 1016.4
20260507004532 25 153 0.0 0.0 0.00 0.00 0.00 55 1016.3
20260507004030 24 187 0.0 0.0 0.00 0.00 0.00 56 1016.3
20260507003531 24 213 0.0 0.0 0.00 0.00 0.00 56 1016.4
20260507003029 24 110 0.0 0.0 0.00 0.00 0.00 55 1016.3
20260507002529 24 108 0.0 0.0 0.00 0.00 0.00 56 1016.3
20260507002029 24 116 0.0 0.0 0.00 0.00 0.00 55 1016.3
20260507001534 25 74 0.0 0.0 0.00 0.00 0.00 54 1016.2
20260507001028 25 175 0.0 0.0 0.00 0.00 0.00 54 1016.3
20260507000528 25 128 0.0 0.0 0.00 0.00 0.00 57 1016.3
20260507000028 25 212 0.0 0.0 0.00 0.00 0.00 55 1016.2
20260506235527 25 153 0.0 0.0 0.00 0.00 0.00 54 1016.3
20260506235026 25 198 0.0 0.0 0.00 0.00 0.00 55 1016.3
20260506234525 25 195 0.0 0.0 0.00 0.00 0.00 54 1016.4
20260506234025 24 246 0.0 0.0 0.00 0.00 0.00 56 1016.4
20260506233524 24 200 0.0 0.0 0.00 0.00 0.00 55 1016.5
20260506233023 24 138 0.0 0.0 0.00 0.00 0.00 57 1016.4
20260506232521 24 114 0.0 0.0 0.00 0.00 0.00 56 1016.4
20260506232020 23 207 0.0 0.0 0.00 0.00 0.00 57 1016.5
20260506231521 23 224 0.0 0.0 0.00 0.00 0.00 59 1016.6
20260506231019 23 138 0.0 0.0 0.00 0.00 0.00 59 1016.5
20260506230518 23 103 0.0 0.0 0.00 0.00 0.00 58 1016.6
20260506230013 23 80 0.0 0.0 0.00 0.00 0.00 57 1016.7
20260506225515 23 91 0.0 0.0 0.00 0.00 0.00 58 1016.8
20260506225018 23 137 0.0 0.0 0.00 0.00 0.00 58 1016.8
20260506224512 23 92 0.0 0.0 0.00 0.00 0.00 56 1016.8
20260506224011 23 202 0.0 0.0 0.00 0.00 0.00 57 1017.0
20260506223510 23 112 0.0 0.0 0.00 0.00 0.00 57 1017.0
20260506223016 23 182 0.0 0.0 0.00 0.00 0.00 56 1017.0
20260506222509 23 210 0.0 0.0 0.00 0.00 0.00 59 1017.0
20260506222009 23 203 0.0 0.0 0.00 0.00 0.00 59 1017.1
20260506221508 23 76 0.0 0.0 0.00 0.00 0.00 58 1017.2
20260506221007 23 81 0.0 0.0 0.00 0.00 0.00 58 1017.2
20260506220507 23 234 0.0 0.0 0.00 0.00 0.00 58 1017.2
20260506220006 23 94 0.0 0.0 0.00 0.00 0.00 59 1017.4
20260506215506 23 128 0.0 0.0 0.00 0.00 0.00 58 1017.5
20260506215005 23 113 0.0 0.0 0.00 0.00 0.00 59 1017.5
20260506214504 23 116 0.0 0.0 0.00 0.00 0.00 60 1017.5
20260506214003 23 71 0.0 0.0 0.00 0.00 0.00 58 1017.6
20260506213501 23 121 0.0 0.0 0.00 0.00 0.00 61 1017.7
20260506213001 23 61 0.0 0.0 0.00 0.00 0.00 60 1017.8
20260506212501 23 111 0.0 0.0 0.00 0.00 0.00 60 1017.8
20260506212001 23 189 0.0 0.0 0.00 0.00 0.00 59 1017.9
20260506211600 23 123 0.0 0.0 0.00 0.00 0.00 60 1017.8
20260506211059 23 76 0.0 0.0 0.00 0.00 0.00 61 1018.0
20260506210559 23 228 0.0 0.0 0.00 0.00 0.00 61 1017.9
20260506210057 23 218 0.0 0.0 0.00 0.00 0.00 61 1017.9
20260506205556 22 105 0.0 0.0 0.00 0.00 0.00 62 1017.9
20260506205056 22 118 0.0 0.0 0.00 0.00 0.00 63 1017.9
20260506204556 22 67 0.0 0.0 0.00 0.00 0.00 60 1017.9
20260506204055 22 172 0.0 0.0 0.00 0.00 0.00 61 1018.1
20260506203555 22 186 0.0 0.0 0.00 0.00 0.00 60 1018.1
20260506203055 22 61 0.0 0.0 0.00 0.00 0.00 61 1018.2
20260506202555 22 133 0.0 0.0 0.00 0.00 0.00 60 1018.2
20260506202055 22 199 0.0 0.0 0.00 0.00 0.00 61 1018.2
20260506201556 22 209 0.0 0.0 0.00 0.00 0.00 61 1018.3
20260506201053 22 188 0.0 0.0 0.00 0.00 0.00 63 1018.3
20260506200551 22 190 0.0 0.0 0.00 0.00 0.00 64 1018.4
20260506200050 22 104 0.0 0.0 0.00 0.00 0.00 62 1018.5
20260506195549 22 71 0.0 0.0 0.00 0.00 0.00 62 1018.5
20260506195049 22 217 0.0 0.0 0.00 0.00 0.00 62 1018.5
20260506194549 22 214 0.0 0.0 0.00 0.00 0.00 64 1018.5
20260506194049 22 100 0.0 0.0 0.00 0.00 0.00 62 1018.5
20260506193553 21 146 0.0 0.0 0.00 0.00 0.00 64 1018.6
20260506193048 21 90 0.0 0.0 0.00 0.00 0.00 63 1018.6
20260506192548 21 108 0.0 0.0 0.00 0.00 0.00 62 1018.7
20260506192048 21 189 0.0 0.0 0.00 0.00 0.00 65 1018.8
20260506191549 21 190 0.0 0.0 0.00 0.00 0.00 62 1018.8
20260506191047 21 111 0.0 0.0 0.00 0.00 0.00 63 1018.9
20260506190547 21 202 0.0 0.0 0.00 0.00 0.00 64 1018.9
20260506190047 21 87 0.0 0.0 0.00 0.00 0.00 65 1018.9
20260506185543 21 179 0.0 0.0 0.00 0.00 0.00 68 1018.9
20260506185043 21 59 0.0 0.0 0.00 0.00 0.00 66 1018.9
20260506184548 21 86 0.0 0.0 0.00 0.00 0.00 66 1018.9
20260506184041 20 88 0.0 0.0 0.00 0.00 0.00 68 1018.9
20260506183543 20 219 0.0 0.0 0.00 0.00 0.00 69 1019.0
20260506183039 20 174 0.0 0.0 0.00 0.00 0.00 69 1019.0
20260506182538 20 189 0.0 0.0 0.00 0.00 0.00 73 1019.1
20260506182037 19 193 0.0 0.0 0.00 0.00 0.00 69 1019.1
20260506181538 19 120 0.0 0.0 0.00 0.00 0.00 72 1019.1
20260506181037 19 198 0.0 0.0 0.00 0.00 0.00 69 1019.1
20260506180537 19 268 0.0 0.0 0.00 0.00 0.00 70 1019.1
20260506180036 19 213 0.0 0.0 0.00 0.00 0.00 68 1019.1
20260506175535 18 243 0.0 0.0 0.00 0.00 0.00 70 1019.1
20260506175036 19 236 0.0 0.0 0.00 0.00 0.00 68 1019.1
20260506174536 19 240 0.0 0.0 0.00 0.00 0.00 69 1019.1
20260506174037 19 240 0.0 0.0 0.00 0.00 0.00 68 1019.1
20260506173535 19 271 0.0 0.0 0.00 0.00 0.00 69 1019.1
20260506173050 20 265 0.0 0.0 0.00 0.00 0.00 67 1019.1
20260506172534 19 257 0.0 0.0 0.00 0.00 0.00 68 1019.1
20260506172032 19 231 0.0 0.0 0.00 0.00 0.00 70 1019.1
20260506171531 18 218 0.0 0.0 0.00 0.00 0.00 70 1019.2
20260506171033 18 205 0.0 0.0 0.00 0.00 0.00 70 1019.2
20260506170529 18 205 0.0 0.0 0.00 0.00 0.00 70 1019.2
20260506170031 18 190 0.0 0.0 0.00 0.00 0.00 69 1019.2
20260506165527 18 95 0.0 0.0 0.00 0.00 0.00 71 1019.3
20260506165026 18 20 0.0 0.0 0.00 0.00 0.00 73 1019.3
20260506164525 17 282 0.0 0.0 0.00 0.00 0.00 74 1019.3
20260506164025 17 254 0.0 0.0 0.00 0.00 0.00 72 1019.3
20260506163528 17 204 0.0 0.0 0.00 0.00 0.00 72 1019.4
20260506163027 17 169 0.0 0.0 0.00 0.00 0.00 73 1019.5
20260506162524 17 168 0.0 0.0 0.00 0.00 0.00 77 1019.4
20260506162020 16 173 0.0 0.0 0.00 0.00 0.00 77 1019.4
20260506161516 16 173 0.0 0.0 0.00 0.00 0.00 79 1019.5
20260506161014 16 168 0.0 0.0 0.00 0.00 0.00 81 1019.4
20260506160514 15 167 0.0 0.0 0.00 0.00 0.00 83 1019.5
20260506160012 15 165 0.0 0.0 0.00 0.00 0.00 83 1019.6
20260506155510 14 154 0.0 0.0 0.00 0.00 0.00 85 1019.5
20260506155008 14 148 0.0 1.6 0.00 0.00 0.00 86 1019.6
20260506154508 13 173 0.0 1.6 0.00 0.00 0.00 90 1019.5
20260506154006 13 298 0.0 0.0 0.00 0.00 0.00 91 1019.6
20260506153504 13 299 0.0 0.0 0.00 0.00 0.00 92 1019.6
20260506153003 13 98 0.0 0.0 0.00 0.00 0.00 94 1019.6
20260506152501 13 101 0.0 0.0 0.00 0.00 0.00 95 1019.5
20260506152100 12 101 0.0 0.0 0.00 0.00 0.00 96 1019.6
20260506151602 12 101 0.0 0.0 0.00 0.00 0.00 97 1019.6
20260506151057 12 101 0.0 0.0 0.00 0.00 0.00 97 1019.6
20260506150556 12 101 0.0 0.0 0.00 0.00 0.00 97 1019.6
20260506150057 12 98 0.0 0.0 0.00 0.00 0.00 98 1019.6
20260506145556 11 282 0.0 0.0 0.00 0.00 0.00 97 1019.7
20260506145052 11 215 0.0 0.0 0.00 0.00 0.00 97 1019.6
20260506144552 11 215 0.0 0.0 0.00 0.00 0.00 97 1019.7
20260506144051 11 215 0.0 0.0 0.00 0.00 0.00 97 1019.7
20260506143550 11 215 0.0 0.0 0.00 0.00 0.00 97 1019.7
20260506143050 11 215 0.0 0.0 0.00 0.00 0.00 97 1019.7
20260506142549 11 216 0.0 0.0 0.00 0.00 0.00 97 1019.7
20260506142052 11 217 0.0 0.0 0.00 0.00 0.00 97 1019.7
20260506141548 11 217 0.0 0.0 0.00 0.00 0.00 97 1019.6
20260506141048 11 217 0.0 0.0 0.00 0.00 0.00 97 1019.7
20260506140547 11 217 0.0 0.0 0.00 0.00 0.00 96 1019.6
20260506140047 11 217 0.0 0.0 0.00 0.00 0.00 96 1019.5
20260506135545 11 217 0.0 0.0 0.00 0.00 0.00 96 1019.4
20260506135044 11 91 0.0 0.0 0.00 0.00 0.00 97 1019.3
20260506134544 11 91 0.0 0.0 0.00 0.00 0.00 97 1019.3
20260506134044 11 91 0.0 0.0 0.00 0.00 0.00 97 1019.3
20260506133544 11 91 0.0 0.0 0.00 0.00 0.00 97 1019.2
20260506133044 11 91 0.0 0.0 0.00 0.00 0.00 97 1019.2
20260506132542 11 91 0.0 0.0 0.00 0.00 0.00 97 1019.2
20260506132041 11 91 0.0 0.0 0.00 0.00 0.00 97 1019.1
20260506131549 11 91 0.0 0.0 0.00 0.00 0.00 97 1019.1
20260506131040 11 91 0.0 0.0 0.00 0.00 0.00 97 1018.9
20260506130541 11 91 0.0 0.0 0.00 0.00 0.00 97 1018.8
20260506130056 11 91 0.0 0.0 0.00 0.00 0.00 97 1018.8
20260506125539 11 91 0.0 0.0 0.00 0.00 0.00 97 1018.9
20260506125038 11 91 0.0 0.0 0.00 0.00 0.00 97 1018.8
20260506124538 11 91 0.0 0.0 0.00 0.00 0.00 97 1018.8
20260506124038 11 91 0.0 0.0 0.00 0.00 0.00 97 1018.7
20260506123538 11 91 0.0 0.0 0.00 0.00 0.00 97 1018.7
20260506123040 11 91 0.0 0.0 0.00 0.00 0.00 97 1018.8
20260506122540 11 91 0.0 0.0 0.00 0.00 0.00 97 1018.8
20260506122037 11 91 0.0 0.0 0.00 0.00 0.00 97 1018.7
20260506121537 11 91 0.0 0.0 0.00 0.00 0.00 97 1018.7
20260506121036 11 91 0.0 0.0 0.00 0.00 0.00 97 1018.6
20260506120536 11 91 0.0 0.0 0.00 0.00 0.00 97 1018.6
20260506120036 11 91 0.0 0.0 0.00 0.00 0.00 97 1018.6
20260506115535 11 91 0.0 0.0 0.00 0.00 0.00 97 1018.5
20260506115034 11 91 0.0 0.0 0.00 0.00 0.00 97 1018.5
20260506114538 11 91 0.0 0.0 0.00 0.00 0.00 97 1018.5
20260506114034 11 91 0.0 0.0 0.00 0.00 0.00 97 1018.4
20260506113534 11 91 0.0 0.0 0.00 0.00 0.00 97 1018.4
20260506113040 11 91 0.0 0.0 0.00 0.00 0.00 97 1018.5
20260506112533 11 91 0.0 0.0 0.00 0.00 0.00 97 1018.5
20260506112037 10 91 0.0 0.0 0.00 0.00 0.00 97 1018.5
20260506111533 10 91 0.0 0.0 0.00 0.00 0.00 97 1018.5
20260506111033 10 91 0.0 0.0 0.00 0.00 0.00 97 1018.4
20260506110533 10 91 0.0 0.0 0.00 0.00 0.00 96 1018.4
20260506110035 10 91 0.0 0.0 0.00 0.00 0.00 96 1018.4
20260506105532 10 91 0.0 0.0 0.00 0.00 0.00 96 1018.4
20260506105034 10 91 0.0 0.0 0.00 0.00 0.00 96 1018.4
20260506104531 10 91 0.0 0.0 0.00 0.00 0.00 96 1018.3
20260506104031 10 91 0.0 0.0 0.00 0.00 0.00 96 1018.4
20260506103531 10 91 0.0 0.0 0.00 0.00 0.00 96 1018.4
20260506103044 10 91 0.0 0.0 0.00 0.00 0.00 96 1018.4
20260506102530 10 91 0.0 0.0 0.00 0.00 0.00 96 1018.4
20260506102030 10 91 0.0 0.0 0.00 0.00 0.00 96 1018.4
20260506101543 10 91 0.0 0.0 0.00 0.00 0.00 96 1018.4
20260506101030 10 91 0.0 0.0 0.00 0.00 0.00 96 1018.4
20260506100530 10 91 0.0 0.0 0.00 0.00 0.00 96 1018.4
20260506100043 10 91 0.0 0.0 0.00 0.00 0.00 96 1018.4
20260506095530 10 91 0.0 0.0 0.00 0.00 0.00 96 1018.3
20260506095033 10 91 0.0 0.0 0.00 0.00 0.00 96 1018.3
20260506094530 10 91 0.0 0.0 0.00 0.00 0.00 96 1018.3
20260506094029 10 91 0.0 0.0 0.00 0.00 0.00 95 1018.4
20260506093529 10 91 0.0 0.0 0.00 0.00 0.00 95 1018.5
20260506093038 10 91 0.0 0.0 0.00 0.00 0.00 95 1018.5
20260506092530 10 91 0.0 0.0 0.00 0.00 0.00 95 1018.5
20260506092029 10 91 0.0 0.0 0.00 0.00 0.00 95 1018.5
20260506091529 10 91 0.0 0.0 0.00 0.00 0.00 94 1018.5
20260506091032 10 91 0.0 0.0 0.00 0.00 0.00 95 1018.5
20260506090526 10 91 0.0 0.0 0.00 0.00 0.00 94 1018.4
20260506090027 10 91 0.0 0.0 0.00 0.00 0.00 94 1018.4
20260506085524 10 91 0.0 0.0 0.00 0.00 0.00 94 1018.3
20260506085020 10 91 0.0 0.0 0.00 0.00 0.00 94 1018.3
20260506084519 10 91 0.0 0.0 0.00 0.00 0.00 94 1018.3
20260506084019 11 91 0.0 0.0 0.00 0.00 0.00 94 1018.3
20260506082512 11 91 0.0 0.0 0.00 0.00 0.00 93 1018.3
20260506082011 11 91 0.0 0.0 0.00 0.00 0.00 93 1018.3
20260506081510 11 91 0.0 0.0 0.00 0.00 0.00 93 1018.3
20260506081009 11 91 0.0 0.0 0.00 0.00 0.00 93 1018.2
20260506080509 11 91 0.0 0.0 0.00 0.00 0.00 93 1018.2
20260506073504 12 91 0.0 0.0 0.00 0.00 0.00 93 1018.0
20260506073006 12 91 0.0 0.0 0.00 0.00 0.00 93 1017.9
20260506072503 12 91 0.0 0.0 0.00 0.00 0.00 93 1017.9
20260506072003 12 91 0.0 0.0 0.00 0.00 0.00 93 1017.9
20260506071502 12 91 0.0 0.0 0.00 0.00 0.00 93 1017.9
20260506071003 12 91 0.0 0.0 0.00 0.00 0.00 93 1017.9
20260506070501 12 91 0.0 0.0 0.00 0.00 0.00 93 1017.9
20260506070103 12 91 0.0 0.0 0.00 0.00 0.00 92 1017.8
20260506062057 12 91 0.0 0.0 0.00 0.00 0.00 92 1017.6
20260506061557 12 91 0.0 0.0 0.00 0.00 0.00 92 1017.6
20260506061056 12 91 0.0 0.0 0.00 0.00 0.00 92 1017.5
20260506060559 12 91 0.0 0.0 0.00 0.00 0.00 92 1017.4